Location: Ellerstadt
(49.4644°N, 8.2615°E)
Time: 23:44:49
(UTC+00:00)

Cosmos 1959 Rocket - Pass Details

Date: 03 March 2021
Orbit: 948 x 996 km, 83.0° (Epoch: 12 April)

Event Time Altitude Azimuth Distance (km) Brightness Sun altitude
Rises 19:10:43 0° 180° (S) 3,608 7.3 -19.8°
Reaches altitude 10° 19:13:12 10° 178° (S) 2,666 6.6 -20.2°
Maximum altitude 19:19:15 72° 95° (E) 998 4.3 -21.1°
Drops below altitude 10° 19:25:22 10° 13° (NNE) 2,691 6.8 -22.1°
Sets 19:27:53 0° 11° (NNE) 3,645 7.6 -22.5°
